Flag for Netherlands Weather past 2 weeks in Leiden, Netherlands

Now
54 °F

Cool.


Feels Like: 52 °F
Forecast: 57 / 64 °F
Wind: 6 mph from West

Location: Rotterdam Zestienhoven Airport

Current Time: Sep 1, 2015 at 11:02:02 PM

Latest Report: Sep 1, 2015 at 10:25 PM


Visibility: N/A

Pressure: 30.04 "Hg

Humidity: 88%

Dew point: 50 °F

Location of LeidenLocation

Historic Weather in Leiden — Graph

°F

Leiden temperature yesterday

Maximum temperature yesterday: 77 °F (at 1:25 PM)
Minimum temperature yesterday: 63 °F (at 11:55 PM)
Average temperature yesterday: 69 °F

Past Weeks' High & Low Weather Summary

 TemperatureHumidityPressure
High81 °F (Aug 21, 4:55 PM)100% (Aug 18, 1:25 AM)30.21 "Hg (Aug 18, 1:25 AM)
Low52 °F (Aug 29, 6:25 AM)39% (Aug 22, 4:55 PM)29.42 "Hg (Aug 24, 5:25 PM)
Average65 °F80%29.92 "Hg
* Reported Aug 17 9:25 PM — Sep 1 9:55 PM, Leiden, Weather by CustomWeather, © 2015

Note: Actual official high and low records may vary slightly from our data, if they occured in-between our weather recording intervals... More about our weather records

Advertising

Leiden weather history for previous 24 hours

 ConditionsComfort  
Time TempWeatherWind HumidityBarometerVisibility
9:55 PM
Tue, Sep 1
55 °FPassing clouds.5 mph82%30.04 "HgN/A
9:25 PM57 °FCool.6 mph77%30.04 "HgN/A
8:55 PM57 °FPassing clouds.6 mph77%30.04 "HgN/A
8:25 PM59 °FCool.10 mph77%30.04 "HgN/A
7:55 PM59 °FPassing clouds.12 mph77%30.01 "HgN/A
7:25 PM63 °FBroken clouds.12 mph73%30.01 "HgN/A
6:55 PM61 °FCool.9 mph72%30.01 "HgN/A
6:25 PM64 °FPassing clouds.14 mph68%30.01 "HgN/A
5:55 PM64 °FPassing clouds.10 mph68%30.01 "HgN/A
5:25 PM64 °FPassing clouds.13 mph64%30.01 "HgN/A
4:55 PM64 °FScattered clouds.10 mph73%29.98 "HgN/A
4:25 PM63 °FClear.10 mph68%29.98 "HgN/A
3:55 PM64 °FScattered clouds.13 mph68%29.98 "HgN/A
3:25 PM64 °FScattered clouds.14 mph73%29.98 "HgN/A
2:55 PM64 °FPartly sunny.13 mph73%29.98 "HgN/A
2:25 PM64 °FScattered clouds.13 mph73%29.95 "HgN/A
1:55 PM64 °FBroken clouds.12 mph73%29.95 "HgN/A
1:25 PM64 °FPassing clouds.12 mph73%29.95 "HgN/A
12:55 PM64 °FPassing clouds.12 mph73%29.95 "HgN/A
12:25 PM63 °FBroken clouds.13 mph77%29.92 "HgN/A
11:55 AM63 °FPassing clouds.10 mph77%29.92 "HgN/A
11:25 AM63 °FScattered clouds.10 mph83%29.92 "HgN/A
10:55 AM63 °FDrizzle. Cloudy.8 mph83%29.89 "HgN/A
10:25 AM63 °FPartly sunny.7 mph83%29.89 "HgN/A
9:55 AM61 °FScattered clouds.6 mph88%29.89 "HgN/A
9:25 AM61 °FScattered clouds.7 mph88%29.89 "HgN/A
8:55 AM61 °FMostly cloudy.6 mph88%29.89 "HgN/A
8:25 AM61 °FDrizzle. Partly sunny.2 mph88%29.89 "HgN/A
7:55 AM61 °FDrizzle. Broken clouds.5 mph88%29.89 "HgN/A
7:25 AM61 °FPassing clouds.6 mph88%29.89 "HgN/A
6:55 AM61 °FMostly cloudy.5 mph94%29.86 "HgN/A
5:25 AM61 °FMostly cloudy.8 mph88%29.86 "HgN/A
4:55 AM61 °FPartly cloudy.8 mph94%29.86 "HgN/A
4:25 AM61 °FMostly cloudy.7 mph94%29.86 "HgN/A
3:55 AM61 °FMostly cloudy.8 mph94%29.86 "HgN/A
3:25 AM63 °FOvercast.8 mph88%29.86 "HgN/A
2:55 AM63 °FPartly cloudy.9 mph88%29.86 "HgN/A
2:25 AM63 °FPartly cloudy.10 mph88%29.86 "HgN/A
1:55 AM63 °FMostly cloudy.8 mph94%29.83 "HgN/A
1:25 AM63 °FPartly cloudy.10 mph94%29.83 "HgN/A
12:55 AM63 °FPartly cloudy.12 mph94%29.83 "Hg5 mi
11:55 PM
Mon, Aug 31
63 °FMostly cloudy.7 mph94%29.80 "HgN/A
11:25 PM64 °FMostly cloudy.10 mph94%29.80 "HgN/A
Weather by CustomWeather, © 2015

See weather overviewHow to use our weather pages